COSMOS 1704

导读

COSMOS 1704是苏联(CIS独立国家联合体前身)于1985年11月28日08:00发射的人造卫星,隶属于苏联"宇宙"(COSMOS)卫星系列。该系列是苏联规模最大的卫星家族,涵盖军用侦察、通信、科学实验等多种用途,这种统一命名方式意在保密卫星具体任务。作为冷战时期苏联航天活动的产物,它见证了当年航天技术发展,多数同系列卫星完成任务后已退役,部分成为空间碎片,也反映了早期航天活动对轨道环境的长期影响。

Basic Information
目录编号:
16291
目录名称:
COSMOS 1704
国际标识:
1985-110A
轨道中心:
EARTH
卫星名称:
COSMOS 1704
卫星全名:
--
卫星状态:
在轨 (已飞行14898 天)
发射日期:
1985-11-28 UTC
国别 :
俄罗斯(独联体) (CIS)
星等 :
--
This satellite is enrolled in the Space Conjunction Data Service (SCDS) and the current flight risk assessment level is: No High Risk
Orbit Information
数据来源 国际轨道数据
星历时间: 2026-09-12T07:26:30+0800
16小时前
查看轨道信息
半长轴: 7360.187km
偏心率: 0.0030983
轨道倾角: 82.932°
近地点辐角 173.273°
升交点赤经 60.387°
平近点角 302.830°
近地点: 959.245km
远地点: 1004.855km
周期: 104.735分钟
每日圈数: 13.74895
Detailed Information
使用方式:
暂无
2D Orbit Map
3D Orbit Map
Orbit Altitude Analysis Chart
Orbit Inclination Analysis Chart
Orbit Comprehensive Analysis Chart
View Comprehensive Chart
Conjunction Data List
Event ID Objects TCA Miss Dist (km) Collision Risk Probability Collision Risk Index (CRI) Action
CDM_260913-124900-595801-629128
2026-09-13T
12:49:27+0000
1.276 km
极远距离
9.706133E-6 低风险 0.55
CDM_260915-033401-629103-119221
2026-09-15T
03:34:02+0000
2.351 km
极远距离
1.955873E-6 低风险 0.41
Miss Distance Evolution Trend with All Objects
Collision Probability Evolution Trend with All Objects